Location: Hurstbourne Priors
(51.2000°N, 1.3667°W)
Time: 21:54:11
(UTC+00:00)

Transit 4A - Pass Details

Date: 23 April 2021
Orbit: 871 x 974 km, 66.8° (Epoch: 16 May)

Event Time Altitude Azimuth Distance (km) Brightness Sun altitude
Rises 06:46:09 0° 322° (NW) 3,532 10.6 16.4°
Reaches altitude 10° 06:48:42 10° 324° (NW) 2,574 9.9 16.8°
Maximum altitude 06:54:39 71° 49° (NE) 930 8.5 17.8°
Drops below altitude 10° 07:00:27 10° 134° (SE) 2,518 11.1 18.7°
Sets 07:02:55 0° 136° (SE) 3,450 11.6 19.1°
